| time (UTC) | temp F | wind direction | speed MPH | gust MPH | rain 1hr in | rain 24hr in | rain mn in | humidity % | barometer mb |
| 20260506231506 | 60 | 308 | 0.0 | 0.0 | 0.00 | 0.00 | 0.00 | 92 | 1025.7 |
| 20260506230002 | 60 | 215 | 0.0 | 5.0 | 0.00 | 0.00 | 0.00 | 92 | 1025.7 |
| 20260506224502 | 60 | 254 | 0.0 | 4.0 | 0.00 | 0.00 | 0.00 | 92 | 1025.7 |
| 20260506223001 | 60 | 270 | 0.0 | 0.0 | 0.00 | 0.00 | 0.00 | 92 | 1025.7 |
| 20260506221501 | 60 | 281 | 0.0 | 4.0 | 0.00 | 0.00 | 0.00 | 92 | 1025.7 |
| 20260506220105 | 61 | 306 | 0.0 | 0.0 | 0.00 | 0.00 | 0.00 | 91 | 1025.7 |
| 20260506214610 | 61 | 259 | 0.0 | 0.0 | 0.00 | 0.00 | 0.00 | 91 | 1025.7 |
| 20260506213059 | 61 | 245 | 0.0 | 6.0 | 0.00 | 0.00 | 0.00 | 91 | 1025.7 |
| 20260506211559 | 61 | 279 | 0.0 | 2.0 | 0.00 | 0.00 | 0.00 | 91 | 1025.7 |
| 20260506210100 | 61 | 283 | 0.0 | 6.0 | 0.00 | 0.00 | 0.00 | 90 | 1025.7 |
| 20260506204617 | 62 | 163 | 0.0 | 0.0 | 0.00 | 0.00 | 0.00 | 90 | 1025.7 |
| 20260506203056 | 63 | 162 | 0.0 | 6.0 | 0.00 | 0.00 | 0.00 | 88 | 1025.7 |
| 20260506201554 | 64 | 243 | 0.0 | 0.0 | 0.00 | 0.00 | 0.00 | 87 | 1025.7 |
| 20260506200053 | 64 | 30 | 0.0 | 4.0 | 0.00 | 0.00 | 0.00 | 85 | 1025.7 |
| 20260506194603 | 65 | 153 | 0.0 | 1.0 | 0.00 | 0.00 | 0.00 | 84 | 1025.7 |
| 20260506193057 | 66 | 256 | 0.0 | 0.0 | 0.00 | 0.00 | 0.00 | 83 | 1025.7 |
| 20260506191552 | 66 | 256 | 0.0 | 0.0 | 0.00 | 0.00 | 0.00 | 82 | 1025.7 |
| 20260506190050 | 67 | 261 | 0.0 | 5.0 | 0.00 | 0.00 | 0.00 | 79 | 1025.7 |
| 20260506184550 | 70 | 6 | 0.0 | 4.0 | 0.00 | 0.00 | 0.00 | 72 | 1025.7 |
| 20260506183054 | 71 | 214 | 1.0 | 7.0 | 0.00 | 0.00 | 0.00 | 67 | 1025.7 |
| 20260506181549 | 71 | 282 | 0.0 | 8.0 | 0.00 | 0.00 | 0.00 | 66 | 1025.7 |
| 20260506180051 | 72 | 263 | 0.0 | 5.0 | 0.00 | 0.00 | 0.00 | 65 | 1025.7 |
| 20260506174549 | 73 | 281 | 0.0 | 5.0 | 0.00 | 0.00 | 0.00 | 63 | 1025.7 |
| 20260506173049 | 74 | 64 | 0.0 | 8.0 | 0.00 | 0.00 | 0.00 | 62 | 1025.7 |
| 20260506171554 | 73 | 301 | 1.0 | 5.0 | 0.00 | 0.00 | 0.00 | 64 | 1025.7 |
| 20260506170047 | 72 | 144 | 0.0 | 5.0 | 0.00 | 0.00 | 0.00 | 65 | 1025.7 |
| 20260506164544 | 72 | 304 | 0.0 | 4.0 | 0.00 | 0.00 | 0.00 | 65 | 1025.7 |
| 20260506163045 | 73 | 263 | 0.0 | 5.0 | 0.00 | 0.00 | 0.00 | 64 | 1025.7 |
| 20260506161543 | 73 | 268 | 1.0 | 7.0 | 0.00 | 0.00 | 0.00 | 64 | 1025.7 |
| 20260506160043 | 73 | 267 | 0.0 | 8.0 | 0.00 | 0.00 | 0.00 | 65 | 1025.7 |
| 20260506154552 | 73 | 229 | 0.0 | 6.0 | 0.00 | 0.00 | 0.00 | 65 | 1025.7 |
| 20260506153042 | 73 | 309 | 1.0 | 9.0 | 0.00 | 0.00 | 0.00 | 64 | 1025.7 |
| 20260506151538 | 73 | 271 | 0.0 | 5.0 | 0.00 | 0.00 | 0.00 | 65 | 1025.7 |
| 20260506150036 | 72 | 233 | 0.0 | 12.0 | 0.00 | 0.00 | 0.00 | 68 | 1025.7 |
| 20260506144537 | 71 | 319 | 0.0 | 7.0 | 0.00 | 0.00 | 0.00 | 67 | 1025.7 |
| 20260506143033 | 71 | 121 | 0.0 | 6.0 | 0.00 | 0.00 | 0.00 | 69 | 1025.7 |
| 20260506141529 | 70 | 337 | 0.0 | 6.0 | 0.00 | 0.00 | 0.00 | 71 | 1025.7 |
| 20260506140029 | 69 | 266 | 1.0 | 9.0 | 0.00 | 0.00 | 0.00 | 74 | 1025.7 |
| 20260506134523 | 68 | 204 | 0.0 | 4.0 | 0.00 | 0.00 | 0.00 | 75 | 1025.7 |
| 20260506133040 | 67 | 266 | 1.0 | 8.0 | 0.00 | 0.00 | 0.00 | 74 | 1025.7 |
| 20260506131528 | 66 | 338 | 0.0 | 5.0 | 0.00 | 0.00 | 0.00 | 76 | 1025.7 |
| 20260506130020 | 66 | 238 | 1.0 | 9.0 | 0.00 | 0.00 | 0.00 | 76 | 1025.7 |
| 20260506124516 | 65 | 14 | 0.0 | 8.0 | 0.00 | 0.00 | 0.00 | 79 | 1025.7 |
| 20260506123014 | 64 | 255 | 0.0 | 5.0 | 0.00 | 0.00 | 0.00 | 79 | 1025.7 |
| 20260506121513 | 64 | 281 | 1.0 | 6.0 | 0.00 | 0.00 | 0.00 | 80 | 1025.7 |
| 20260506120018 | 64 | 329 | 0.0 | 5.0 | 0.00 | 0.00 | 0.00 | 80 | 1025.7 |
| 20260506114511 | 63 | 154 | 0.0 | 4.0 | 0.00 | 0.00 | 0.00 | 81 | 1025.7 |
| 20260506113011 | 63 | 169 | 0.0 | 2.0 | 0.00 | 0.00 | 0.00 | 81 | 1025.7 |
| 20260506111508 | 62 | 262 | 1.0 | 6.0 | 0.00 | 0.00 | 0.00 | 83 | 1025.7 |
| 20260506110006 | 61 | 261 | 0.0 | 0.0 | 0.00 | 0.00 | 0.00 | 84 | 1025.7 |
| 20260506104506 | 61 | 282 | 0.0 | 7.0 | 0.00 | 0.00 | 0.00 | 84 | 1025.7 |
| 20260506103002 | 61 | 304 | 0.0 | 2.0 | 0.00 | 0.00 | 0.00 | 83 | 1025.7 |
| 20260506101501 | 61 | 210 | 0.0 | 0.0 | 0.00 | 0.00 | 0.00 | 84 | 1025.7 |
| 20260506094559 | 60 | 279 | 0.0 | 0.0 | 0.00 | 0.00 | 0.00 | 83 | 1025.7 |
| 20260506093056 | 60 | 279 | 0.0 | 2.0 | 0.00 | 0.00 | 0.00 | 83 | 1025.7 |
| 20260506091600 | 61 | 287 | 0.0 | 0.0 | 0.00 | 0.00 | 0.00 | 82 | 1025.7 |
| 20260506090053 | 61 | 239 | 0.0 | 0.0 | 0.00 | 0.00 | 0.00 | 81 | 1025.7 |
| 20260506084554 | 61 | 267 | 0.0 | 4.0 | 0.00 | 0.00 | 0.00 | 81 | 1025.7 |
| 20260506083052 | 61 | 316 | 0.0 | 2.0 | 0.00 | 0.00 | 0.00 | 80 | 1025.7 |
| 20260506081552 | 62 | 336 | 0.0 | 4.0 | 0.00 | 0.00 | 0.00 | 79 | 1025.7 |
| 20260506073047 | 62 | 249 | 0.0 | 0.0 | 0.00 | 0.00 | 0.00 | 78 | 1025.7 |
| 20260506071545 | 62 | 246 | 0.0 | 5.0 | 0.00 | 0.00 | 0.00 | 77 | 1025.7 |
| 20260506061541 | 63 | 147 | 0.0 | 4.0 | 0.00 | 0.00 | 0.00 | 74 | 1025.7 |
| 20260506044532 | 65 | 285 | 0.0 | 7.0 | 0.00 | 0.00 | 0.00 | 69 | 1025.7 |
| 20260506043030 | 64 | 279 | 0.0 | 5.0 | 0.00 | 0.00 | 0.00 | 69 | 1025.7 |
| 20260506041529 | 64 | 48 | 1.0 | 8.0 | 0.00 | 0.00 | 0.00 | 69 | 1025.7 |
| 20260506040036 | 64 | 247 | 0.0 | 1.0 | 0.00 | 0.00 | 0.00 | 68 | 1025.7 |
| 20260506034627 | 65 | 257 | 0.0 | 10.0 | 0.00 | 0.00 | 0.00 | 67 | 1025.7 |
| 20260506033026 | 65 | 298 | 0.0 | 6.0 | 0.00 | 0.00 | 0.00 | 67 | 1025.7 |
| 20260506031528 | 65 | 186 | 0.0 | 0.0 | 0.00 | 0.00 | 0.00 | 67 | 1025.7 |
| 20260506030024 | 65 | 185 | 0.0 | 0.0 | 0.00 | 0.00 | 0.00 | 66 | 1025.7 |
| 20260506024528 | 65 | 235 | 0.0 | 5.0 | 0.00 | 0.00 | 0.00 | 66 | 1025.7 |
| 20260506023028 | 64 | 237 | 0.0 | 0.0 | 0.00 | 0.00 | 0.00 | 67 | 1025.7 |
| 20260506021531 | 65 | 235 | 0.0 | 0.0 | 0.00 | 0.00 | 0.00 | 67 | 1025.7 |
| 20260506020022 | 65 | 235 | 0.0 | 0.0 | 0.00 | 0.00 | 0.00 | 67 | 1025.7 |
| 20260506014521 | 65 | 171 | 0.0 | 0.0 | 0.00 | 0.00 | 0.00 | 66 | 1025.7 |
| 20260506013020 | 66 | 171 | 0.0 | 1.0 | 0.00 | 0.00 | 0.00 | 65 | 1025.7 |
| 20260506011521 | 66 | 256 | 0.0 | 1.0 | 0.00 | 0.00 | 0.00 | 64 | 1025.7 |
| 20260506010038 | 67 | 131 | 0.0 | 7.0 | 0.00 | 0.00 | 0.00 | 63 | 1025.7 |
| 20260506004519 | 67 | 247 | 0.0 | 7.0 | 0.00 | 0.00 | 0.00 | 62 | 1025.7 |
| 20260506003019 | 68 | 102 | 0.0 | 4.0 | 0.00 | 0.00 | 0.00 | 61 | 1025.7 |
| 20260506001519 | 69 | 45 | 0.0 | 5.0 | 0.00 | 0.00 | 0.00 | 59 | 1025.7 |
| 20260506000019 | 70 | 183 | 1.0 | 5.0 | 0.00 | 0.00 | 0.00 | 57 | 1025.7 |
| 20260505234532 | 71 | 212 | 0.0 | 7.0 | 0.00 | 0.00 | 0.00 | 56 | 1025.7 |
| 20260505233018 | 72 | 273 | 0.0 | 7.0 | 0.00 | 0.00 | 0.00 | 55 | 1025.7 |